Location: Acts Church of Fort Worth
(32.6786°N, 97.2668°W)
Time: 22:22:59
(UTC+00:00)

USA 238 DEB - Pass Details

Date: 18 January 2026
Orbit: 883 x 1328 km, 63.4° (Epoch: 10 January)

Event Time Altitude Azimuth Distance (km) Brightness Sun altitude
Rises 23:57:50 0° 335° (NNW) 4,038 6.8 -2.7°
Reaches altitude 10° 00:00:36 10° 341° (NNW) 3,134 6.1 -3.3°
Maximum altitude 00:07:59 50° 55° (NE) 1,582 4.3 -4.7°
Drops below altitude 10° 00:15:51 10° 129° (SE) 3,337 6.0 -6.3°
Sets 00:18:51 0° 134° (SE) 4,319 6.6 -6.9°
